AFR25Q OBBI-LFPG

Flight info

Callsign AFR25Q
Flight time N/A
Altitude 38000
Route NARMI J735 TAYMA N697 BPN H999 HIL A788 LOXOR/N0490F400 A788 HLF N316 HGD M872 SEMRU A727 CVO L617 SOBAX M872 METRU UM872 LATAN DCT LCC DCT OSDAX DCT ARSOB DCT AMSED DCT EVKIV DCT OBUXA DCT BALSI UY36 LTP A2 BUSIL DCT PIBAT
Aircraft A359/H-SDE2E3GHIJ3J4J5LM1ORWXY/LB1D1

Departure

Time 2026-05-04 09:07
Airport Bahrain International Airport (OBBI)

Arrival

Time N/A
Airport Charles de Gaulle International Airport (LFPG)
Time Latitude Longitude Altitude Speed Heading
2026-05-04 08:35 26.26454 50.63769 27 ft 0 kts 203°
2026-05-04 08:55 26.26468 50.63775 27 ft 3 kts 207°
2026-05-04 08:57 26.26524 50.63821 26 ft 0 kts 188°
2026-05-04 09:01 26.26485 50.63845 26 ft 1 kts 129°
2026-05-04 09:01 26.26476 50.63857 25 ft 3 kts 128°
2026-05-04 09:01 26.26459 50.63883 24 ft 5 kts 126°
2026-05-04 09:01 26.26432 50.63926 24 ft 8 kts 121°
2026-05-04 09:02 26.26424 50.63994 22 ft 10 kts 77°
2026-05-04 09:02 26.26449 50.64069 21 ft 10 kts 97°
2026-05-04 09:02 26.26425 50.64149 21 ft 12 kts 117°
2026-05-04 09:02 26.26386 50.64238 21 ft 13 kts 95°
2026-05-04 09:03 26.26392 50.64273 21 ft 1 kts 89°
2026-05-04 09:03 26.26384 50.64279 21 ft 2 kts 145°
2026-05-04 09:03 26.26338 50.64316 20 ft 14 kts 140°
2026-05-04 09:03 26.26263 50.64428 20 ft 22 kts 122°
2026-05-04 09:04 26.26173 50.64586 21 ft 26 kts 122°
2026-05-04 09:04 26.26073 50.64761 23 ft 27 kts 123°
2026-05-04 09:04 26.26021 50.64901 22 ft 12 kts 86°
2026-05-04 09:04 26.26065 50.64975 24 ft 12 kts 39°
2026-05-04 09:05 26.26112 50.65004 26 ft 6 kts
2026-05-04 09:05 26.26145 50.64983 27 ft 6 kts 315°
2026-05-04 09:05 26.26172 50.64939 25 ft 8 kts 303°
2026-05-04 09:05 26.26207 50.64876 22 ft 15 kts 302°
2026-05-04 09:06 26.26365 50.64604 20 ft 70 kts 303°
2026-05-04 09:07 26.30551 50.57034 1245 ft 238 kts 303°
2026-05-04 09:08 26.31295 50.55299 1017 ft 255 kts 289°
2026-05-04 09:08 26.31595 50.53340 945 ft 258 kts 276°
2026-05-04 09:08 26.31672 50.51321 1381 ft 262 kts 273°
2026-05-04 09:08 26.31643 50.49295 1766 ft 261 kts 269°
2026-05-04 09:09 26.31472 50.47276 2119 ft 263 kts 265°
2026-05-04 09:09 26.31224 50.45251 2700 ft 265 kts 265°
2026-05-04 09:09 26.30971 50.43219 3287 ft 265 kts 265°
2026-05-04 09:09 26.30731 50.41198 3869 ft 266 kts 266°
2026-05-04 09:10 26.30514 50.39131 4436 ft 267 kts 267°
2026-05-04 09:10 26.30326 50.37046 4722 ft 279 kts 268°
2026-05-04 09:10 26.30156 50.34881 5252 ft 280 kts 269°
2026-05-04 09:10 26.30264 50.32744 5807 ft 275 kts 285°
2026-05-04 09:11 26.30749 50.30694 6382 ft 273 kts 290°
2026-05-04 09:11 26.31369 50.28699 6883 ft 273 kts 292°
2026-05-04 09:11 26.32069 50.26723 7394 ft 274 kts 294°
2026-05-04 09:11 26.32805 50.24759 7906 ft 275 kts 294°
2026-05-04 09:12 26.33554 50.22787 8425 ft 277 kts 294°
2026-05-04 09:12 26.34308 50.20806 8965 ft 278 kts 294°
2026-05-04 09:14 26.39602 50.06280 10466 ft 318 kts 292°
2026-05-04 09:14 26.40438 50.03948 10655 ft 329 kts 292°
2026-05-04 09:14 26.41303 50.01534 10865 ft 340 kts 291°
2026-05-04 09:14 26.42192 49.99048 11047 ft 349 kts 291°
2026-05-04 09:15 26.43102 49.96502 11245 ft 358 kts 291°
2026-05-04 09:15 26.44032 49.93896 11539 ft 362 kts 291°
2026-05-04 09:15 26.44966 49.91281 11898 ft 365 kts 291°
2026-05-04 09:15 26.45910 49.88642 12286 ft 366 kts 291°
2026-05-04 09:17 26.52370 49.67664 14981 ft 379 kts 284°
2026-05-04 09:18 26.53079 49.64817 15318 ft 381 kts 284°
2026-05-04 09:18 26.53789 49.61966 15656 ft 383 kts 284°
2026-05-04 09:18 26.54506 49.59096 16009 ft 384 kts 284°
2026-05-04 09:18 26.55220 49.56248 16346 ft 386 kts 284°
2026-05-04 09:19 26.55946 49.53356 16686 ft 388 kts 284°
2026-05-04 09:19 26.56677 49.50446 17028 ft 389 kts 284°
2026-05-04 09:19 26.57411 49.47528 17371 ft 391 kts 284°
2026-05-04 09:19 26.58148 49.44595 17700 ft 393 kts 284°
2026-05-04 09:20 26.58886 49.41652 18043 ft 395 kts 284°
2026-05-04 09:20 26.59627 49.38697 18337 ft 396 kts 284°
2026-05-04 09:20 26.60375 49.35708 18624 ft 398 kts 284°
2026-05-04 09:20 26.61121 49.32726 18908 ft 399 kts 284°
2026-05-04 09:21 26.61869 49.29732 19192 ft 401 kts 284°
2026-05-04 09:21 26.62620 49.26721 19481 ft 402 kts 283°
2026-05-04 09:21 26.63373 49.23704 19756 ft 404 kts 283°
2026-05-04 09:21 26.64126 49.20679 20037 ft 405 kts 283°
2026-05-04 09:22 26.64883 49.17638 20321 ft 407 kts 283°
2026-05-04 09:22 26.65641 49.14588 20583 ft 408 kts 283°
2026-05-04 09:22 26.66403 49.11521 20845 ft 410 kts 283°
2026-05-04 09:22 26.67165 49.08452 21117 ft 411 kts 283°
2026-05-04 09:23 26.67930 49.05366 21400 ft 413 kts 283°
2026-05-04 09:23 26.68697 49.02268 21647 ft 414 kts 283°
2026-05-04 09:23 26.69466 48.99160 21886 ft 416 kts 283°
2026-05-04 09:23 26.70237 48.96042 22149 ft 417 kts 283°
2026-05-04 09:25 26.75678 48.73904 23830 ft 426 kts 282°
2026-05-04 09:25 26.76241 48.70662 24054 ft 424 kts 275°
2026-05-04 09:26 26.76436 48.67366 24284 ft 423 kts 270°
2026-05-04 09:26 26.76457 48.64079 24507 ft 423 kts 268°
2026-05-04 09:26 26.76398 48.60787 24731 ft 424 kts 267°
2026-05-04 09:26 26.76299 48.57483 24933 ft 424 kts 266°
2026-05-04 09:27 26.76187 48.54189 25149 ft 425 kts 266°
2026-05-04 09:27 26.76075 48.50880 25368 ft 425 kts 266°
2026-05-04 09:27 26.75969 48.47571 25574 ft 426 kts 266°
2026-05-04 09:27 26.75869 48.44251 25783 ft 427 kts 267°
2026-05-04 09:28 26.75775 48.40933 26007 ft 427 kts 267°
2026-05-04 09:28 26.75683 48.37648 26220 ft 428 kts 267°
2026-05-04 09:28 26.75590 48.34282 26444 ft 428 kts 267°
2026-05-04 09:28 26.75499 48.30990 26651 ft 429 kts 267°
2026-05-04 09:29 26.75407 48.27654 26864 ft 430 kts 267°
2026-05-04 09:29 26.75314 48.24311 27082 ft 430 kts 267°
2026-05-04 09:29 26.75220 48.20963 27286 ft 431 kts 267°
2026-05-04 09:29 26.75124 48.17600 27505 ft 432 kts 267°
2026-05-04 09:30 26.75028 48.14249 27725 ft 432 kts 267°
2026-05-04 09:30 26.74930 48.10878 27947 ft 433 kts 267°
2026-05-04 09:30 26.74831 48.07511 28169 ft 434 kts 266°
2026-05-04 09:30 26.74731 48.04135 28374 ft 435 kts 266°
2026-05-04 09:31 26.74630 48.00744 28602 ft 436 kts 266°
2026-05-04 09:31 26.74529 47.97355 28818 ft 436 kts 266°
2026-05-04 09:31 26.74426 47.93952 29032 ft 437 kts 266°
2026-05-04 09:31 26.74322 47.90550 29241 ft 438 kts 267°
2026-05-04 09:32 26.74346 47.87148 29450 ft 439 kts 270°
2026-05-04 09:32 26.74473 47.83721 29655 ft 440 kts 271°
2026-05-04 09:34 26.75631 47.60773 30850 ft 446 kts 271°
2026-05-04 09:34 26.75803 47.57306 31021 ft 447 kts 271°
2026-05-04 09:34 26.75973 47.53824 31183 ft 448 kts 271°
2026-05-04 09:34 26.76142 47.50332 31349 ft 449 kts 271°
2026-05-04 09:35 26.76311 47.46841 31550 ft 449 kts 271°
2026-05-04 09:35 26.76477 47.43405 31801 ft 448 kts 271°
2026-05-04 09:35 26.76646 47.39928 32041 ft 447 kts 271°
2026-05-04 09:35 26.76992 47.36419 32278 ft 448 kts 275°
2026-05-04 09:37 26.80619 47.12557 34049 ft 442 kts 276°
2026-05-04 09:37 26.81139 47.09174 34275 ft 441 kts 276°
2026-05-04 09:38 26.81658 47.05776 34496 ft 441 kts 276°
2026-05-04 09:38 26.82172 47.02405 34725 ft 440 kts 276°
2026-05-04 09:38 26.82687 46.99022 34961 ft 439 kts 276°
2026-05-04 09:38 26.83192 46.95697 35203 ft 438 kts 276°
2026-05-04 09:39 26.83703 46.92332 35441 ft 438 kts 275°
2026-05-04 09:39 26.84212 46.88972 35681 ft 437 kts 275°
2026-05-04 09:39 26.84718 46.85624 35923 ft 436 kts 275°
2026-05-04 09:39 26.85223 46.82280 36155 ft 436 kts 275°
2026-05-04 09:40 26.85729 46.78928 36391 ft 435 kts 275°
2026-05-04 09:40 26.86232 46.75585 36627 ft 435 kts 275°
2026-05-04 09:40 26.86733 46.72250 36865 ft 434 kts 275°
2026-05-04 09:40 26.87233 46.68919 37095 ft 433 kts 275°
2026-05-04 09:41 26.87730 46.65600 37334 ft 433 kts 275°
2026-05-04 09:42 26.91189 46.42340 37932 ft 433 kts 274°
2026-05-04 09:43 26.92174 46.35688 37934 ft 432 kts 274°
2026-05-04 09:43 26.93152 46.29085 37938 ft 432 kts 274°
2026-05-04 09:44 26.94132 46.22451 37940 ft 432 kts 274°
2026-05-04 09:46 26.98019 45.95897 37941 ft 430 kts 274°
2026-05-04 09:46 26.98981 45.89269 37943 ft 430 kts 274°
2026-05-04 09:47 26.99932 45.82697 37954 ft 430 kts 274°
2026-05-04 09:49 27.03720 45.56287 37948 ft 428 kts 274°
2026-05-04 09:51 27.06693 45.33207 37951 ft 425 kts 272°
2026-05-04 09:51 27.07406 45.26617 37952 ft 425 kts 272°
2026-05-04 09:52 27.08128 45.20037 37955 ft 425 kts 272°
2026-05-04 09:52 27.08850 45.13507 37952 ft 425 kts 272°
2026-05-04 09:53 27.09576 45.06927 37952 ft 424 kts 272°
2026-05-04 09:53 27.10297 45.00358 37952 ft 424 kts 271°
2026-05-04 09:54 27.11015 44.93782 37954 ft 424 kts 271°
2026-05-04 09:54 27.11730 44.87214 37955 ft 424 kts 271°
2026-05-04 09:55 27.12441 44.80643 37951 ft 424 kts 271°
2026-05-04 09:55 27.13150 44.74072 37953 ft 424 kts 271°
2026-05-04 09:56 27.13855 44.67506 37950 ft 424 kts 271°
2026-05-04 09:56 27.14556 44.60946 37950 ft 424 kts 271°
2026-05-04 09:57 27.15258 44.54361 37946 ft 423 kts 271°
2026-05-04 09:57 27.15950 44.47844 37948 ft 423 kts 271°
2026-05-04 09:58 27.16644 44.41281 37946 ft 423 kts 271°
2026-05-04 09:58 27.17333 44.34715 37947 ft 423 kts 271°
2026-05-04 10:00 27.20037 44.08451 37948 ft 423 kts 270°
2026-05-04 10:04 27.24661 43.62409 37954 ft 424 kts 270°
2026-05-04 10:04 27.25312 43.55822 37956 ft 424 kts 270°
2026-05-04 10:05 27.25956 43.49235 37961 ft 425 kts 270°
2026-05-04 10:05 27.26604 43.42629 37964 ft 425 kts 270°
2026-05-04 10:06 27.27248 43.36020 37963 ft 425 kts 270°
2026-05-04 10:06 27.27886 43.29443 37969 ft 426 kts 270°
2026-05-04 10:08 27.30105 43.06265 37976 ft 426 kts 270°
2026-05-04 10:08 27.30733 42.99637 37981 ft 425 kts 270°
2026-05-04 10:09 27.31356 42.93025 37971 ft 425 kts 270°
2026-05-04 10:09 27.31972 42.86453 37975 ft 425 kts 270°
2026-05-04 10:10 27.32589 42.79845 37983 ft 425 kts 270°
2026-05-04 10:10 27.33201 42.73242 37987 ft 424 kts 270°
2026-05-04 10:11 27.33811 42.66634 37990 ft 424 kts 270°
2026-05-04 10:11 27.34416 42.60037 37991 ft 424 kts 270°
2026-05-04 10:12 27.35019 42.53437 37995 ft 423 kts 270°
2026-05-04 10:12 27.35618 42.46850 37991 ft 423 kts 270°
2026-05-04 10:13 27.36214 42.40262 38003 ft 423 kts 270°
2026-05-04 10:13 27.36804 42.33686 38001 ft 422 kts 270°
2026-05-04 10:14 27.37387 42.27159 38000 ft 422 kts 270°
2026-05-04 10:16 27.39703 42.00894 38029 ft 421 kts 270°
2026-05-04 10:16 27.40274 41.94327 38038 ft 421 kts 270°
2026-05-04 10:17 27.40838 41.87806 38046 ft 421 kts 270°
2026-05-04 10:19 27.41090 41.65085 38048 ft 409 kts 250°
2026-05-04 10:19 27.40098 41.62090 38048 ft 408 kts 246°
2026-05-04 10:19 27.37803 41.56254 38048 ft 407 kts 244°
2026-05-04 10:20 27.35824 41.51446 38046 ft 407 kts 244°
2026-05-04 10:20 27.33462 41.45657 38045 ft 407 kts 245°
2026-05-04 10:21 27.31125 41.39857 38041 ft 406 kts 245°
2026-05-04 10:21 27.28800 41.34064 38037 ft 406 kts 245°
2026-05-04 10:22 27.25313 41.25391 38034 ft 406 kts 245°
2026-05-04 10:23 27.22999 41.19647 38030 ft 405 kts 245°
2026-05-04 10:25 27.13678 40.96602 38014 ft 404 kts 245°
2026-05-04 10:25 27.11348 40.90862 38015 ft 404 kts 245°
2026-05-04 10:26 27.09013 40.85116 38005 ft 404 kts 245°
2026-05-04 10:26 27.06678 40.79377 38002 ft 404 kts 245°
2026-05-04 10:27 27.04338 40.73637 38004 ft 404 kts 245°
2026-05-04 10:27 27.01999 40.67906 38002 ft 404 kts 245°
2026-05-04 10:28 26.99658 40.62180 37996 ft 404 kts 245°
2026-05-04 10:28 26.97333 40.56500 37999 ft 403 kts 245°
2026-05-04 10:29 26.94993 40.50790 37991 ft 403 kts 245°
2026-05-04 10:29 26.92656 40.45096 37992 ft 402 kts 245°
2026-05-04 10:30 26.90314 40.39398 37974 ft 402 kts 245°
2026-05-04 10:30 26.87971 40.33706 37968 ft 402 kts 245°
2026-05-04 10:31 26.85627 40.28019 37972 ft 402 kts 245°
2026-05-04 10:32 26.77419 40.08165 37971 ft 402 kts 245°
2026-05-04 10:33 26.75060 40.02478 37977 ft 402 kts 245°
2026-05-04 10:33 26.72702 39.96800 37973 ft 402 kts 245°
2026-05-04 10:34 26.70345 39.91133 37977 ft 403 kts 245°
2026-05-04 10:34 26.67976 39.85444 37978 ft 403 kts 245°
2026-05-04 10:35 26.65605 39.79758 37982 ft 403 kts 245°
2026-05-04 10:35 26.63233 39.74079 37980 ft 403 kts 245°
2026-05-04 10:36 26.60858 39.68400 37986 ft 403 kts 245°
2026-05-04 10:36 26.58481 39.62722 37992 ft 403 kts 245°
2026-05-04 10:37 26.56101 39.57047 37979 ft 403 kts 245°
2026-05-04 10:37 26.53731 39.51403 37975 ft 404 kts 245°
2026-05-04 10:39 26.45636 39.31383 37983 ft 406 kts 252°
2026-05-04 10:40 26.44772 39.25134 37987 ft 411 kts 265°
2026-05-04 10:40 26.45512 39.18738 37986 ft 422 kts 278°
2026-05-04 10:41 26.47132 39.12460 37984 ft 425 kts 280°
2026-05-04 10:41 26.48880 39.06157 37986 ft 425 kts 280°
2026-05-04 10:42 26.50590 38.99857 37982 ft 425 kts 279°
2026-05-04 10:42 26.52269 38.93528 37978 ft 424 kts 279°
2026-05-04 10:43 26.53932 38.87199 37979 ft 425 kts 279°
2026-05-04 10:44 26.59736 38.65031 38105 ft 425 kts 279°
2026-05-04 10:45 26.60556 38.61865 37989 ft 423 kts 279°
2026-05-04 10:45 26.62189 38.55597 37977 ft 423 kts 279°
2026-05-04 10:46 26.63834 38.49290 37971 ft 422 kts 279°
2026-05-04 10:46 26.65476 38.42974 37965 ft 422 kts 279°
2026-05-04 10:47 26.67110 38.36667 37970 ft 422 kts 279°
2026-05-04 10:47 26.68739 38.30363 37963 ft 422 kts 279°
2026-05-04 10:49 26.75208 38.05214 37964 ft 421 kts 279°
2026-05-04 10:50 26.76824 37.98901 37969 ft 421 kts 279°
2026-05-04 10:52 26.83247 37.73672 37986 ft 423 kts 279°
2026-05-04 10:52 26.84856 37.67317 37991 ft 424 kts 279°
2026-05-04 10:54 26.91266 37.41902 38012 ft 424 kts 279°
2026-05-04 10:56 26.97628 37.16453 38006 ft 424 kts 279°
2026-05-04 10:57 26.99212 37.10086 38006 ft 424 kts 279°
2026-05-04 10:57 27.00792 37.03721 38009 ft 424 kts 279°
2026-05-04 10:58 27.02359 36.97397 38001 ft 423 kts 279°
2026-05-04 10:58 27.03933 36.91036 38006 ft 423 kts 279°
2026-05-04 10:59 27.05498 36.84687 38023 ft 423 kts 279°
2026-05-04 10:59 27.07060 36.78327 38000 ft 421 kts 279°
2026-05-04 11:00 27.08614 36.72004 38002 ft 420 kts 279°
2026-05-04 11:02 27.14766 36.46820 37994 ft 418 kts 279°
2026-05-04 11:05 27.26142 35.99679 37991 ft 416 kts 277°
2026-05-04 11:06 27.27645 35.93391 37994 ft 416 kts 277°
2026-05-04 11:06 27.28891 35.88172 37995 ft 416 kts 277°
2026-05-04 11:10 27.39264 35.44344 37997 ft 413 kts 277°
2026-05-04 11:12 27.45112 35.19336 37984 ft 413 kts 277°
2026-05-04 11:12 27.46567 35.13081 37987 ft 412 kts 277°
2026-05-04 11:13 27.48016 35.06840 37974 ft 412 kts 277°
2026-05-04 11:13 27.49454 35.00630 37977 ft 412 kts 277°
2026-05-04 11:14 27.50348 34.94352 37974 ft 402 kts 267°
2026-05-04 11:16 27.44771 34.70580 37976 ft 394 kts 250°
2026-05-04 11:16 27.43040 34.64723 37978 ft 394 kts 250°
2026-05-04 11:17 27.41320 34.58862 37981 ft 394 kts 250°
2026-05-04 11:19 27.34412 34.35422 37985 ft 396 kts 250°
2026-05-04 11:19 27.32672 34.29545 37990 ft 396 kts 250°
2026-05-04 11:20 27.30927 34.23662 37992 ft 396 kts 250°
2026-05-04 11:20 27.29191 34.17819 37993 ft 396 kts 250°
2026-05-04 11:22 27.22175 33.94309 38016 ft 396 kts 251°
2026-05-04 11:23 27.20464 33.88424 38019 ft 397 kts 253°
2026-05-04 11:24 27.22470 33.69995 38023 ft 424 kts 289°
2026-05-04 11:25 27.23886 33.67084 38048 ft 425 kts 292°
2026-05-04 11:25 27.26819 33.61315 38017 ft 424 kts 292°
2026-05-04 11:27 27.39841 33.35341 38015 ft 424 kts 292°
2026-05-04 11:28 27.42710 33.29543 38019 ft 424 kts 292°
2026-05-04 11:28 27.45579 33.23737 38020 ft 424 kts 292°
2026-05-04 11:29 27.48444 33.17936 38022 ft 423 kts 292°
2026-05-04 11:29 27.51302 33.12140 38024 ft 423 kts 292°
2026-05-04 11:33 27.71205 32.71545 38043 ft 421 kts 292°
2026-05-04 11:33 27.74034 32.65743 38046 ft 421 kts 292°
2026-05-04 11:34 27.76851 32.59959 38054 ft 421 kts 292°
2026-05-04 11:34 27.79668 32.54167 38049 ft 420 kts 292°
2026-05-04 11:35 27.82477 32.48380 38055 ft 420 kts 291°
2026-05-04 11:35 27.85281 32.42597 38058 ft 420 kts 291°
2026-05-04 11:36 27.88067 32.36842 38072 ft 420 kts 291°
2026-05-04 11:36 27.90867 32.31054 38081 ft 420 kts 292°
2026-05-04 11:37 27.93663 32.25264 38090 ft 419 kts 292°
2026-05-04 11:37 27.96455 32.19475 38098 ft 419 kts 291°
2026-05-04 11:38 27.99266 32.13684 38105 ft 421 kts 293°
2026-05-04 11:38 28.02859 32.08345 38111 ft 436 kts 306°
2026-05-04 11:39 28.07831 32.04186 38114 ft 458 kts 322°
2026-05-04 11:40 28.26762 31.97736 38128 ft 476 kts 334°
2026-05-04 11:41 28.29964 31.96760 38123 ft 476 kts 334°
2026-05-04 11:41 28.36319 31.94806 38133 ft 476 kts 334°
2026-05-04 11:42 28.42706 31.92810 38131 ft 475 kts 334°
2026-05-04 11:42 28.49079 31.90797 38126 ft 475 kts 334°
2026-05-04 11:43 28.55455 31.88783 38128 ft 475 kts 334°
2026-05-04 11:43 28.61829 31.86769 38128 ft 475 kts 334°
2026-05-04 11:44 28.68203 31.84753 38125 ft 475 kts 334°
2026-05-04 11:44 28.74579 31.82732 38124 ft 475 kts 334°
2026-05-04 11:45 28.80945 31.80712 38121 ft 474 kts 334°
2026-05-04 11:45 28.87275 31.78700 38118 ft 474 kts 334°
2026-05-04 11:46 28.93631 31.76677 38117 ft 474 kts 334°
2026-05-04 11:46 28.99987 31.74649 38115 ft 474 kts 334°
2026-05-04 11:47 29.06328 31.72600 38119 ft 473 kts 334°
2026-05-04 11:47 29.12659 31.70545 38115 ft 473 kts 334°
2026-05-04 11:48 29.18996 31.68487 38120 ft 473 kts 334°
2026-05-04 11:48 29.25292 31.66442 38117 ft 473 kts 334°
2026-05-04 11:49 29.31621 31.64384 38119 ft 473 kts 334°
2026-05-04 11:49 29.37955 31.62321 38117 ft 473 kts 334°
2026-05-04 11:50 29.44289 31.60256 38113 ft 473 kts 334°
2026-05-04 11:50 29.50617 31.58191 38102 ft 473 kts 334°
2026-05-04 11:51 29.56946 31.56122 38110 ft 473 kts 334°
2026-05-04 11:51 29.63273 31.54052 38107 ft 473 kts 334°
2026-05-04 11:52 29.69553 31.51994 38109 ft 472 kts 334°
2026-05-04 11:52 29.75875 31.49911 38100 ft 472 kts 334°
2026-05-04 11:53 29.81168 31.48159 38098 ft 472 kts 334°
2026-05-04 11:53 29.88282 31.45802 38090 ft 472 kts 334°
2026-05-04 11:55 30.12366 31.35462 38089 ft 439 kts 311°
2026-05-04 11:56 30.16904 31.30792 38078 ft 435 kts 308°
2026-05-04 11:56 30.21278 31.26012 38081 ft 435 kts 308°
2026-05-04 11:57 30.25681 31.21204 38077 ft 435 kts 308°
2026-05-04 11:57 30.29390 31.17190 38078 ft 435 kts 309°
2026-05-04 11:58 30.33787 31.12447 38084 ft 435 kts 309°
2026-05-04 11:58 30.38220 31.07665 38086 ft 435 kts 309°
2026-05-04 11:59 30.42645 31.02884 38077 ft 435 kts 309°
2026-05-04 11:59 30.47063 30.98102 38075 ft 434 kts 309°
2026-05-04 12:00 30.51472 30.93323 38078 ft 434 kts 309°
2026-05-04 12:00 30.55883 30.88536 38076 ft 434 kts 309°
2026-05-04 12:01 30.60292 30.83745 38077 ft 434 kts 309°
2026-05-04 12:02 30.75661 30.66995 38082 ft 433 kts 309°
2026-05-04 12:03 30.80049 30.62199 38086 ft 432 kts 309°
2026-05-04 12:03 30.84435 30.57399 38081 ft 432 kts 309°
2026-05-04 12:04 30.88810 30.52604 38086 ft 432 kts 309°
2026-05-04 12:04 30.93155 30.47836 38085 ft 431 kts 309°
2026-05-04 12:05 30.97524 30.43035 38093 ft 431 kts 309°
2026-05-04 12:05 31.01884 30.38238 38095 ft 431 kts 309°
2026-05-04 12:06 31.06179 30.33381 38097 ft 427 kts 306°
2026-05-04 12:06 31.09549 30.27813 38105 ft 416 kts 292°
2026-05-04 12:07 31.11652 30.21570 38101 ft 412 kts 285°
2026-05-04 12:07 31.13374 30.15190 38130 ft 412 kts 284°
2026-05-04 12:08 31.15048 30.08831 38124 ft 412 kts 284°
2026-05-04 12:08 31.16761 30.02438 38126 ft 413 kts 284°
2026-05-04 12:09 31.18694 29.96101 38129 ft 417 kts 290°
2026-05-04 12:09 31.21706 29.90265 38136 ft 423 kts 299°
2026-05-04 12:10 31.25161 29.84687 38132 ft 424 kts 301°
2026-05-04 12:10 31.28681 29.79143 38123 ft 425 kts 301°
2026-05-04 12:11 31.32176 29.73588 38123 ft 425 kts 301°
2026-05-04 12:11 31.35659 29.68001 38113 ft 425 kts 301°
2026-05-04 12:12 31.39138 29.62398 38113 ft 425 kts 301°
2026-05-04 12:12 31.42588 29.56833 38108 ft 425 kts 301°
2026-05-04 12:14 31.56452 29.34403 38109 ft 424 kts 301°
2026-05-04 12:15 31.59886 29.28823 38105 ft 425 kts 301°
2026-05-04 12:15 31.63335 29.23199 38110 ft 424 kts 301°
2026-05-04 12:16 31.66787 29.17558 38095 ft 429 kts 301°
2026-05-04 12:16 31.70296 29.11809 38099 ft 436 kts 301°
2026-05-04 12:17 31.73836 29.06015 38108 ft 436 kts 301°
2026-05-04 12:17 31.77378 29.00214 38110 ft 436 kts 301°
2026-05-04 12:18 31.80908 28.94419 38111 ft 436 kts 301°
2026-05-04 12:18 31.84415 28.88653 38110 ft 436 kts 301°
2026-05-04 12:19 31.86512 28.85200 38108 ft 436 kts 301°